Weather History for Valparaiso, IN

Change the Weather History Date:

Monday, April 8, 2013

  Actual Average Record
Temperature  
Mean Temperature 56 °F 46 °F  
Max Temperature 71 °F 57 °F 78 °F (2001)
Min Temperature 40 °F 36 °F 27 °F (2006)
Degree Days  
Heating Degree Days 9 19  
Month to date heating degree days 182 160  
Since 1 July heating degree days 5551 5737  
Cooling Degree Days 0 0  
Month to date cooling degree days 0 0  
Year to date cooling degree days 0 0  
Growing Degree Days 5 (Base 50)    
Moisture  
Dew Point 45 °F    
Average Humidity 74    
Maximum Humidity 93    
Minimum Humidity 49    
Precipitation  
Precipitation 0.16 in 0.12 in 1.00 in (2002)
Month to date precipitation 0.17 0.81  
Year to date precipitation 4.26 6.46  
Sea Level Pressure  
Sea Level Pressure 29.82 in    
Wind  
Wind Speed 13 mph (ESE)    
Max Wind Speed 8 mph    
Max Gust Speed 10 mph    
Visibility 9 miles    
Events Rain    
T = Trace of Precipitation, MM = Missing Value Source: NWS Daily Summary

Daily Weather History Graph

Daily Weather History Graph

Search for Another Location

Airport:

Trip Planner

Search our weather history database for the weather conditions in past years. The results will help you decide how hot, cold, wet, or windy it might be!

Date:

Astronomy

Apr. 08, 2013 Rise Set
Actual Time 6:19 AM CDT 7:21 PM CDT
Civil Twilight 5:50 AM CDT 7:49 PM CDT
Nautical Twilight 5:17 AM CDT 8:23 PM CDT
Astronomical Twilight 4:41 AM CDT 8:58 PM CDT
Moon 5:10 AM CDT (4/8) 5:54 PM CDT (4/8)
Length of Visible Light 13h 58m
Length of Day
13h 02m
Waning Crescent, 3% of the Moon is Illuminated
Apr 8
Waning Crescent
Apr 10
New
Apr 18
First Quarter
Apr 25
Full
May 2
Last Quarter

Hourly Weather History & Observations

Time (CDT) Temp. Windchill Dew Point Humidity Pressure Visibility Wind Dir Wind Speed Gust Speed Precip Events Conditions
12:53 AM 39.9 °F 33.9 °F 35.1 °F 83% 29.93 in 8.0 mi ENE 9.2 mph - N/A   Clear
1:53 AM 41.0 °F 35.2 °F 35.1 °F 79% 29.94 in 9.0 mi East 9.2 mph - N/A   Clear
2:53 AM 42.1 °F 36.1 °F 35.1 °F 76% 29.89 in 10.0 mi East 10.4 mph - N/A   Clear
3:53 AM 44.1 °F 39.5 °F 36.0 °F 73% 29.86 in 10.0 mi East 8.1 mph - N/A   Clear
4:53 AM 45.0 °F 40.6 °F 37.0 °F 74% 29.84 in 10.0 mi East 8.1 mph - N/A   Partly Cloudy
5:53 AM 46.9 °F - 39.0 °F 74% 29.83 in 10.0 mi ESE 9.2 mph - 0.00 in Rain Light Rain
6:53 AM 46.9 °F - 44.1 °F 90% 29.80 in 5.0 mi ESE 12.7 mph - 0.07 in Rain Light Rain
7:53 AM 50.0 °F - 48.0 °F 93% 29.75 in 2.0 mi SE 6.9 mph 20.7 mph 0.06 in Rain Light Rain
8:05 AM 51.8 °F - 48.2 °F 88% 29.74 in 5.0 mi SE 8.1 mph 17.3 mph 0.01 in Rain Light Rain
8:53 AM 55.9 °F - 53.1 °F 90% 29.73 in 8.0 mi South 11.5 mph 19.6 mph 0.03 in   Overcast
9:53 AM 61.0 °F - 53.1 °F 75% 29.71 in 10.0 mi SSW 18.4 mph 25.3 mph N/A   Overcast
10:44 AM 62.6 °F - 55.4 °F 77% 29.70 in 10.0 mi SW 24.2 mph 35.7 mph N/A   Overcast
10:53 AM 63.0 °F - 54.0 °F 72% 29.72 in 10.0 mi SW 31.1 mph 39.1 mph N/A   Overcast
11:53 AM 66.9 °F - 52.0 °F 59% 29.72 in 10.0 mi SW 27.6 mph 43.7 mph N/A   Partly Cloudy
12:53 PM 68.0 °F - 52.0 °F 56% 29.73 in 10.0 mi WSW 29.9 mph 43.7 mph N/A   Mostly Cloudy
1:53 PM 69.1 °F - 51.1 °F 53% 29.76 in 10.0 mi WSW 29.9 mph 40.3 mph N/A   Mostly Cloudy
2:53 PM 70.0 °F - 50.0 °F 49% 29.77 in 10.0 mi West 25.3 mph 38.0 mph N/A   Partly Cloudy
3:53 PM 71.1 °F - 51.1 °F 49% 29.78 in 10.0 mi West 18.4 mph 25.3 mph N/A   Clear
4:53 PM 70.0 °F - 50.0 °F 49% 29.81 in 10.0 mi NNW 10.4 mph 20.7 mph N/A   Clear
5:53 PM 59.0 °F - 46.9 °F 64% 29.87 in 10.0 mi North 10.4 mph - N/A   Clear
6:53 PM 52.0 °F - 44.1 °F 74% 29.89 in 10.0 mi North 5.8 mph - N/A   Clear
7:53 PM 48.9 °F - 43.0 °F 80% 29.90 in 10.0 mi NNE 6.9 mph - N/A   Clear
8:53 PM 46.9 °F - 42.1 °F 83% 29.94 in 10.0 mi NE 9.2 mph - N/A   Clear
10:53 PM 39.9 °F 36.7 °F 37.9 °F 93% 29.99 in 8.0 mi ENE 4.6 mph - N/A   Clear
11:53 PM 42.1 °F 39.2 °F 39.9 °F 92% 29.99 in 8.0 mi East 4.6 mph - N/A   Partly Cloudy